owner,sensor,date,latitude,longitude,air_pressure(mBar),qcFlag 
NDBC,ioos:station:wmo:42020:1,2013-12-04T16:50:00Z,26.9680,-96.6940,1009.0,1111122 
NDBC,ioos:station:wmo:42020:1,2013-12-04T17:50:00Z,26.9680,-96.6940,1008.5,1111122 
NDBC,ioos:station:wmo:42020:1,2013-12-04T18:50:00Z,26.9680,-96.6940,1007.7,1111122 
NDBC,ioos:station:wmo:42020:1,2013-12-04T19:50:00Z,26.9680,-96.6940,1006.5,1111122 
NDBC,ioos:station:wmo:42020:1,2013-12-04T20:50:00Z,26.9680,-96.6940,1006.2,1111122 
NDBC,ioos:station:wmo:42020:1,2013-12-04T21:50:00Z,26.9680,-96.6940,1006.3,1111122 
NDBC,ioos:station:wmo:42020:1,2013-12-04T22:50:00Z,26.9680,-96.6940,1006.6,1111122 
NDBC,ioos:station:wmo:42020:1,2013-12-04T23:50:00Z,26.9680,-96.6940,1007.1,1111122 
NDBC,ioos:station:wmo:42020:1,2013-12-05T00:50:00Z,26.9680,-96.6940,1007.4,1111122 
NDBC,ioos:station:wmo:42020:1,2013-12-05T01:50:00Z,26.9680,-96.6940,1008.1,1111122 
NDBC,ioos:station:wmo:42020:1,2013-12-05T02:50:00Z,26.9680,-96.6940,1008.9,1111122 
NDBC,ioos:station:wmo:42020:1,2013-12-05T03:50:00Z,26.9680,-96.6940,1009.2,1111122 
NDBC,ioos:station:wmo:42020:1,2013-12-05T04:50:00Z,26.9680,-96.6940,1009.2,1111122 
NDBC,ioos:station:wmo:42020:1,2013-12-05T05:50:00Z,26.9680,-96.6940,1009.6,1111122 
NDBC,ioos:station:wmo:42020:1,2013-12-05T06:50:00Z,26.9680,-96.6940,1009.0,1111122 
NDBC,ioos:station:wmo:42020:1,2013-12-05T08:50:00Z,26.9680,-96.6940,1008.8,1111122 
NDBC,ioos:station:wmo:42020:1,2013-12-05T09:50:00Z,26.9680,-96.6940,1008.8,1111122 
NDBC,ioos:station:wmo:42020:1,2013-12-05T10:50:00Z,26.9680,-96.6940,1008.8,1111122 
NDBC,ioos:station:wmo:42020:1,2013-12-05T11:50:00Z,26.9680,-96.6940,1009.2,1111122 
NDBC,ioos:station:wmo:42020:1,2013-12-05T12:50:00Z,26.9680,-96.6940,1009.6,1111122 
NDBC,ioos:station:wmo:42020:1,2013-12-05T13:50:00Z,26.9680,-96.6940,1010.3,1111122 
NDBC,ioos:station:wmo:42020:1,2013-12-05T14:50:00Z,26.9680,-96.6940,1011.3,1111122 
NDBC,ioos:station:wmo:42020:1,2013-12-05T15:50:00Z,26.9680,-96.6940,1011.5,1111122 
NDBC,ioos:station:wmo:42020:1,2013-12-05T16:50:00Z,26.9680,-96.6940,1011.2,1111122 
NDBC,ioos:station:wmo:42020:1,2013-12-05T17:50:00Z,26.9680,-96.6940,1010.8,1111122 
NDBC,ioos:station:wmo:42020:1,2013-12-05T18:50:00Z,26.9680,-96.6940,1010.2,1111122 
NDBC,ioos:station:wmo:42020:1,2013-12-05T19:50:00Z,26.9680,-96.6940,1010.0,1111122 
NDBC,ioos:station:wmo:42020:1,2013-12-05T20:50:00Z,26.9680,-96.6940,1009.1,1111122 
NDBC,ioos:station:wmo:42020:1,2013-12-05T21:50:00Z,26.9680,-96.6940,1009.0,1111122 
NDBC,ioos:station:wmo:42020:1,2013-12-05T22:50:00Z,26.9680,-96.6940,1009.4,1111122 
NDBC,ioos:station:wmo:42020:1,2013-12-05T23:50:00Z,26.9680,-96.6940,1010.0,1111122 
NDBC,ioos:station:wmo:42020:1,2013-12-06T00:50:00Z,26.9680,-96.6940,1010.8,1111122 
NDBC,ioos:station:wmo:42020:1,2013-12-06T01:50:00Z,26.9680,-96.6940,1011.2,1111122 
NDBC,ioos:station:wmo:42020:1,2013-12-06T02:50:00Z,26.9680,-96.6940,1011.6,1111122 
NDBC,ioos:station:wmo:42020:1,2013-12-06T03:50:00Z,26.9680,-96.6940,1012.2,1111122 
NDBC,ioos:station:wmo:42020:1,2013-12-06T04:50:00Z,26.9680,-96.6940,1012.4,1111122 
NDBC,ioos:station:wmo:42020:1,2013-12-06T05:50:00Z,26.9680,-96.6940,1012.4,1111122 
NDBC,ioos:station:wmo:42020:1,2013-12-06T06:50:00Z,26.9680,-96.6940,1012.5,1111122 
NDBC,ioos:station:wmo:42020:1,2013-12-06T07:50:00Z,26.9680,-96.6940,1012.6,1111122 
NDBC,ioos:station:wmo:42020:1,2013-12-06T08:50:00Z,26.9680,-96.6940,1013.1,1111122 
NDBC,ioos:station:wmo:42020:1,2013-12-06T09:50:00Z,26.9680,-96.6940,1014.1,1111122 
NDBC,ioos:station:wmo:42020:1,2013-12-06T10:50:00Z,26.9680,-96.6940,1014.4,1111122 
NDBC,ioos:station:wmo:42020:1,2013-12-06T11:50:00Z,26.9680,-96.6940,1015.2,1111122 
NDBC,ioos:station:wmo:42020:1,2013-12-06T12:50:00Z,26.9680,-96.6940,1015.8,1111122 
NDBC,ioos:station:wmo:42020:1,2013-12-06T13:50:00Z,26.9680,-96.6940,1017.1,1111122 
NDBC,ioos:station:wmo:42020:1,2013-12-06T14:50:00Z,26.9680,-96.6940,1018.2,1111122 
NDBC,ioos:station:wmo:42020:1,2013-12-06T15:50:00Z,26.9680,-96.6940,1019.7,1111122 
NDBC,ioos:station:wmo:42020:1,2013-12-06T16:50:00Z,26.9680,-96.6940,1020.4,1111122 
NDBC,ioos:station:wmo:42020:1,2013-12-06T17:50:00Z,26.9680,-96.6940,1020.2,1111122 
NDBC,ioos:station:wmo:42020:1,2013-12-06T18:50:00Z,26.9680,-96.6940,1020.0,1111122 
NDBC,ioos:station:wmo:42020:1,2013-12-06T19:50:00Z,26.9680,-96.6940,1019.5,1111122 
NDBC,ioos:station:wmo:42020:1,2013-12-06T20:50:00Z,26.9680,-96.6940,1019.8,1111122 
NDBC,ioos:station:wmo:42020:1,2013-12-06T21:50:00Z,26.9680,-96.6940,1019.7,1111122 
NDBC,ioos:station:wmo:42020:1,2013-12-06T23:50:00Z,26.9680,-96.6940,1021.2,1111122 
NDBC,ioos:station:wmo:42020:1,2013-12-07T00:50:00Z,26.9680,-96.6940,1022.5,1111122 
NDBC,ioos:station:wmo:42020:1,2013-12-07T01:50:00Z,26.9680,-96.6940,1023.3,1111122 
NDBC,ioos:station:wmo:42020:1,2013-12-07T02:50:00Z,26.9680,-96.6940,1024.1,1111122 
NDBC,ioos:station:wmo:42020:1,2013-12-07T05:50:00Z,26.9680,-96.6940,1025.7,1111122 
NDBC,ioos:station:wmo:42020:1,2013-12-07T08:50:00Z,26.9680,-96.6940,1025.5,1111122 
NDBC,ioos:station:wmo:42020:1,2013-12-07T09:50:00Z,26.9680,-96.6940,1025.5,1111122 
NDBC,ioos:station:wmo:42020:1,2013-12-07T11:50:00Z,26.9680,-96.6940,1025.6,1111122 
NDBC,ioos:station:wmo:42020:1,2013-12-07T12:50:00Z,26.9680,-96.6940,1026.2,1111122 
NDBC,ioos:station:wmo:42020:1,2013-12-07T13:50:00Z,26.9680,-96.6940,1026.5,1111122 
NDBC,ioos:station:wmo:42020:1,2013-12-07T14:50:00Z,26.9680,-96.6940,1027.2,1111122 
NDBC,ioos:station:wmo:42020:1,2013-12-07T15:50:00Z,26.9680,-96.6940,1027.5,1111122 
NDBC,ioos:station:wmo:42020:1,2013-12-07T16:50:00Z,26.9680,-96.6940,1027.6,1111122 
NDBC,ioos:station:wmo:42020:1,2013-12-07T17:50:00Z,26.9680,-96.6940,1027.1,1111122 
NDBC,ioos:station:wmo:42020:1,2013-12-07T21:50:00Z,26.9680,-96.6940,1023.4,1111122 
NDBC,ioos:station:wmo:42020:1,2013-12-07T22:50:00Z,26.9680,-96.6940,1023.3,1111122 
NDBC,ioos:station:wmo:42020:1,2013-12-07T23:50:00Z,26.9680,-96.6940,1023.3,1111122 
NDBC,ioos:station:wmo:42020:1,2013-12-08T00:50:00Z,26.9680,-96.6940,1023.9,1111122 
NDBC,ioos:station:wmo:42020:1,2013-12-08T01:50:00Z,26.9680,-96.6940,1024.0,1111122 
NDBC,ioos:station:wmo:42020:1,2013-12-08T02:50:00Z,26.9680,-96.6940,1023.8,1111122 
NDBC,ioos:station:wmo:42020:1,2013-12-08T03:50:00Z,26.9680,-96.6940,1023.7,1111122 
NDBC,ioos:station:wmo:42020:1,2013-12-08T05:50:00Z,26.9680,-96.6940,1022.7,1111122 
NDBC,ioos:station:wmo:42020:1,2013-12-08T07:50:00Z,26.9680,-96.6940,1021.2,1111122 
NDBC,ioos:station:wmo:42020:1,2013-12-08T08:50:00Z,26.9680,-96.6940,1020.2,1111122 
NDBC,ioos:station:wmo:42020:1,2013-12-08T10:50:00Z,26.9680,-96.6940,1020.0,1111122 
NDBC,ioos:station:wmo:42020:1,2013-12-08T11:50:00Z,26.9680,-96.6940,1020.0,1111122 
NDBC,ioos:station:wmo:42020:1,2013-12-08T13:50:00Z,26.9680,-96.6940,1020.6,1111122 
NDBC,ioos:station:wmo:42020:1,2013-12-08T14:50:00Z,26.9680,-96.6940,1020.7,1111122 
NDBC,ioos:station:wmo:42020:1,2013-12-08T15:50:00Z,26.9680,-96.6940,1020.6,1111122 
NDBC,ioos:station:wmo:42020:1,2013-12-08T16:50:00Z,26.9680,-96.6940,1020.0,1111122 
NDBC,ioos:station:wmo:42020:1,2013-12-08T17:50:00Z,26.9680,-96.6940,1019.2,1111122 
NDBC,ioos:station:wmo:42020:1,2013-12-08T18:50:00Z,26.9680,-96.6940,1018.4,1111122 
NDBC,ioos:station:wmo:42020:1,2013-12-08T20:50:00Z,26.9680,-96.6940,1016.6,1111122 
NDBC,ioos:station:wmo:42020:1,2013-12-08T22:50:00Z,26.9680,-96.6940,1016.4,1111122 
NDBC,ioos:station:wmo:42020:1,2013-12-09T01:50:00Z,26.9680,-96.6940,1017.6,1111122 
NDBC,ioos:station:wmo:42020:1,2013-12-09T02:50:00Z,26.9680,-96.6940,1017.2,1111122 
NDBC,ioos:station:wmo:42020:1,2013-12-09T03:50:00Z,26.9680,-96.6940,1017.1,1111122 
NDBC,ioos:station:wmo:42020:1,2013-12-09T05:50:00Z,26.9680,-96.6940,1016.6,1111122 
NDBC,ioos:station:wmo:42020:1,2013-12-09T06:50:00Z,26.9680,-96.6940,1016.1,1111122 
NDBC,ioos:station:wmo:42020:1,2013-12-09T07:50:00Z,26.9680,-96.6940,1015.7,1111122 
NDBC,ioos:station:wmo:42020:1,2013-12-09T08:50:00Z,26.9680,-96.6940,1015.4,1111122 
NDBC,ioos:station:wmo:42020:1,2013-12-09T09:50:00Z,26.9680,-96.6940,1015.1,1111122 
NDBC,ioos:station:wmo:42020:1,2013-12-09T11:50:00Z,26.9680,-96.6940,1015.1,1111122 
NDBC,ioos:station:wmo:42020:1,2013-12-09T12:50:00Z,26.9680,-96.6940,1015.7,1111122 
NDBC,ioos:station:wmo:42020:1,2013-12-09T13:50:00Z,26.9680,-96.6940,1016.6,1111122 
NDBC,ioos:station:wmo:42020:1,2013-12-09T15:50:00Z,26.9680,-96.6940,1017.3,1111122 
NDBC,ioos:station:wmo:42020:1,2013-12-09T16:50:00Z,26.9680,-96.6940,1017.2,1111122 
NDBC,ioos:station:wmo:42020:1,2013-12-10T07:50:00Z,26.9680,-96.6940,1023.3,1111122 
NDBC,ioos:station:wmo:42020:1,2013-12-10T10:50:00Z,26.9680,-96.6940,1025.7,1111122 
NDBC,ioos:station:wmo:42020:1,2013-12-10T20:50:00Z,26.9680,-96.6940,1027.3,1111122 
NDBC,ioos:station:wmo:42020:1,2013-12-11T17:50:00Z,26.9680,-96.6940,1026.7,1111122 
NDBC,ioos:station:wmo:42020:1,2013-12-12T15:50:00Z,26.9680,-96.6940,1031.8,1111122 
NDBC,ioos:station:wmo:42020:1,2013-12-12T17:50:00Z,26.9680,-96.6940,1031.3,1111122 
NDBC,ioos:station:wmo:42020:1,2013-12-12T22:50:00Z,26.9680,-96.6940,1028.1,1111122 
NDBC,ioos:station:wmo:42020:1,2013-12-13T06:50:00Z,26.9680,-96.6940,1024.6,1111122 
NDBC,ioos:station:wmo:42020:1,2013-12-13T07:50:00Z,26.9680,-96.6940,1023.5,1111122 
NDBC,ioos:station:wmo:42020:1,2013-12-13T08:50:00Z,26.9680,-96.6940,1022.7,1111122 
NDBC,ioos:station:wmo:42020:1,2013-12-13T09:50:00Z,26.9680,-96.6940,1021.7,1111122 
NDBC,ioos:station:wmo:42020:1,2013-12-13T10:50:00Z,26.9680,-96.6940,1021.0,1111122 
NDBC,ioos:station:wmo:42020:1,2013-12-13T11:50:00Z,26.9680,-96.6940,1020.4,1111122 
NDBC,ioos:station:wmo:42020:1,2013-12-13T12:50:00Z,26.9680,-96.6940,1020.1,1111122 
NDBC,ioos:station:wmo:42020:1,2013-12-13T13:50:00Z,26.9680,-96.6940,1020.0,1111122 
NDBC,ioos:station:wmo:42020:1,2013-12-13T14:50:00Z,26.9680,-96.6940,1020.4,1111122 
NDBC,ioos:station:wmo:42020:1,2013-12-13T15:50:00Z,26.9680,-96.6940,1019.9,1111122 
NDBC,ioos:station:wmo:42020:1,2013-12-13T16:50:00Z,26.9680,-96.6940,1019.0,1111122 
NDBC,ioos:station:wmo:42020:1,2013-12-13T17:50:00Z,26.9680,-96.6940,1017.3,1111122 
NDBC,ioos:station:wmo:42020:1,2013-12-13T18:50:00Z,26.9680,-96.6940,1015.4,1111122 
NDBC,ioos:station:wmo:42020:1,2013-12-13T19:50:00Z,26.9680,-96.6940,1013.4,1111122 
NDBC,ioos:station:wmo:42020:1,2013-12-13T20:50:00Z,26.9680,-96.6940,1012.3,1111122 
NDBC,ioos:station:wmo:42020:1,2013-12-13T21:50:00Z,26.9680,-96.6940,1012.1,1111122 
NDBC,ioos:station:wmo:42020:1,2013-12-13T22:50:00Z,26.9680,-96.6940,1012.2,1111122 
NDBC,ioos:station:wmo:42020:1,2013-12-13T23:50:00Z,26.9680,-96.6940,1011.6,1111122 
NDBC,ioos:station:wmo:42020:1,2013-12-14T00:50:00Z,26.9680,-96.6940,1012.1,1111122 
NDBC,ioos:station:wmo:42020:1,2013-12-14T01:50:00Z,26.9680,-96.6940,1012.3,1111122 
NDBC,ioos:station:wmo:42020:1,2013-12-14T02:50:00Z,26.9680,-96.6940,1012.9,1111122 
NDBC,ioos:station:wmo:42020:1,2013-12-14T03:50:00Z,26.9680,-96.6940,1013.4,1111122 
NDBC,ioos:station:wmo:42020:1,2013-12-14T04:50:00Z,26.9680,-96.6940,1013.7,1111122 
NDBC,ioos:station:wmo:42020:1,2013-12-14T05:50:00Z,26.9680,-96.6940,1013.0,1111122 
NDBC,ioos:station:wmo:42020:1,2013-12-14T06:50:00Z,26.9680,-96.6940,1012.3,1111122 
NDBC,ioos:station:wmo:42020:1,2013-12-14T07:50:00Z,26.9680,-96.6940,1012.4,1111122 
NDBC,ioos:station:wmo:42020:1,2013-12-14T08:50:00Z,26.9680,-96.6940,1011.7,1111122 
NDBC,ioos:station:wmo:42020:1,2013-12-14T09:50:00Z,26.9680,-96.6940,1011.5,1111122 
NDBC,ioos:station:wmo:42020:1,2013-12-14T10:50:00Z,26.9680,-96.6940,1011.4,1111122 
NDBC,ioos:station:wmo:42020:1,2013-12-14T11:50:00Z,26.9680,-96.6940,1011.5,1111122 
NDBC,ioos:station:wmo:42020:1,2013-12-14T12:50:00Z,26.9680,-96.6940,1012.5,1111122 
NDBC,ioos:station:wmo:42020:1,2013-12-14T13:50:00Z,26.9680,-96.6940,1013.4,1111122 
NDBC,ioos:station:wmo:42020:1,2013-12-14T14:50:00Z,26.9680,-96.6940,1014.2,1111122 
NDBC,ioos:station:wmo:42020:1,2013-12-14T15:50:00Z,26.9680,-96.6940,1015.0,1111122 
NDBC,ioos:station:wmo:42020:1,2013-12-14T16:50:00Z,26.9680,-96.6940,1015.4,1111122 
NDBC,ioos:station:wmo:42020:1,2013-12-14T17:50:00Z,26.9680,-96.6940,1015.2,1111122 
NDBC,ioos:station:wmo:42020:1,2013-12-14T18:50:00Z,26.9680,-96.6940,1014.8,1111122 
NDBC,ioos:station:wmo:42020:1,2013-12-14T19:50:00Z,26.9680,-96.6940,1014.7,1111122 
NDBC,ioos:station:wmo:42020:1,2013-12-14T20:50:00Z,26.9680,-96.6940,1015.4,1111122 
NDBC,ioos:station:wmo:42020:1,2013-12-14T21:50:00Z,26.9680,-96.6940,1016.1,1111122 
NDBC,ioos:station:wmo:42020:1,2013-12-14T22:50:00Z,26.9680,-96.6940,1017.0,1111122 
NDBC,ioos:station:wmo:42020:1,2013-12-14T23:50:00Z,26.9680,-96.6940,1018.6,1111122 
NDBC,ioos:station:wmo:42020:1,2013-12-15T00:50:00Z,26.9680,-96.6940,1019.9,1111122 
NDBC,ioos:station:wmo:42020:1,2013-12-15T01:50:00Z,26.9680,-96.6940,1021.2,1111122 
NDBC,ioos:station:wmo:42020:1,2013-12-15T02:50:00Z,26.9680,-96.6940,1021.7,1111122 
NDBC,ioos:station:wmo:42020:1,2013-12-15T03:50:00Z,26.9680,-96.6940,1022.9,1111122 
NDBC,ioos:station:wmo:42020:1,2013-12-15T04:50:00Z,26.9680,-96.6940,1023.6,1111122 
NDBC,ioos:station:wmo:42020:1,2013-12-15T05:50:00Z,26.9680,-96.6940,1023.9,1111122 
NDBC,ioos:station:wmo:42020:1,2013-12-15T06:50:00Z,26.9680,-96.6940,1024.1,1111122 
NDBC,ioos:station:wmo:42020:1,2013-12-15T07:50:00Z,26.9680,-96.6940,1025.2,1111122 
NDBC,ioos:station:wmo:42020:1,2013-12-15T08:50:00Z,26.9680,-96.6940,1025.4,1111122 
NDBC,ioos:station:wmo:42020:1,2013-12-15T11:50:00Z,26.9680,-96.6940,1026.8,1111122 
NDBC,ioos:station:wmo:42020:1,2013-12-15T12:50:00Z,26.9680,-96.6940,1027.2,1111122 
NDBC,ioos:station:wmo:42020:1,2013-12-15T13:50:00Z,26.9680,-96.6940,1027.6,1111122 
NDBC,ioos:station:wmo:42020:1,2013-12-15T14:50:00Z,26.9680,-96.6940,1028.0,1111122 
NDBC,ioos:station:wmo:42020:1,2013-12-15T15:50:00Z,26.9680,-96.6940,1028.5,1111122 
NDBC,ioos:station:wmo:42020:1,2013-12-15T16:50:00Z,26.9680,-96.6940,1028.7,1111122 
NDBC,ioos:station:wmo:42020:1,2013-12-15T17:50:00Z,26.9680,-96.6940,1027.9,1111122 
NDBC,ioos:station:wmo:42020:1,2013-12-15T18:50:00Z,26.9680,-96.6940,1027.1,1111122 
NDBC,ioos:station:wmo:42020:1,2013-12-15T19:50:00Z,26.9680,-96.6940,1026.3,1111122 
NDBC,ioos:station:wmo:42020:1,2013-12-15T20:50:00Z,26.9680,-96.6940,1026.1,1111122 
NDBC,ioos:station:wmo:42020:1,2013-12-15T21:50:00Z,26.9680,-96.6940,1026.1,1111122 
NDBC,ioos:station:wmo:42020:1,2013-12-15T22:50:00Z,26.9680,-96.6940,1026.2,1111122 
NDBC,ioos:station:wmo:42020:1,2013-12-15T23:50:00Z,26.9680,-96.6940,1026.1,1111122 
NDBC,ioos:station:wmo:42020:1,2013-12-16T00:50:00Z,26.9680,-96.6940,1026.6,1111122 
NDBC,ioos:station:wmo:42020:1,2013-12-16T01:50:00Z,26.9680,-96.6940,1026.8,1111122 
NDBC,ioos:station:wmo:42020:1,2013-12-16T02:50:00Z,26.9680,-96.6940,1027.0,1111122 
NDBC,ioos:station:wmo:42020:1,2013-12-16T03:50:00Z,26.9680,-96.6940,1027.1,1111122 
NDBC,ioos:station:wmo:42020:1,2013-12-16T05:50:00Z,26.9680,-96.6940,1027.1,1111122 
NDBC,ioos:station:wmo:42020:1,2013-12-16T07:50:00Z,26.9680,-96.6940,1026.7,1111122 
NDBC,ioos:station:wmo:42020:1,2013-12-16T08:50:00Z,26.9680,-96.6940,1026.5,1111122 
NDBC,ioos:station:wmo:42020:1,2013-12-16T09:50:00Z,26.9680,-96.6940,1026.3,1111122 
NDBC,ioos:station:wmo:42020:1,2013-12-16T10:50:00Z,26.9680,-96.6940,1025.9,1111122 
NDBC,ioos:station:wmo:42020:1,2013-12-16T11:50:00Z,26.9680,-96.6940,1026.1,1111122 
NDBC,ioos:station:wmo:42020:1,2013-12-16T12:50:00Z,26.9680,-96.6940,1026.4,1111122 
NDBC,ioos:station:wmo:42020:1,2013-12-16T13:50:00Z,26.9680,-96.6940,1026.9,1111122 
NDBC,ioos:station:wmo:42020:1,2013-12-16T14:50:00Z,26.9680,-96.6940,1027.3,1111122 
NDBC,ioos:station:wmo:42020:1,2013-12-16T15:50:00Z,26.9680,-96.6940,1027.7,1111122 
NDBC,ioos:station:wmo:42020:1,2013-12-16T16:50:00Z,26.9680,-96.6940,1027.5,1111122 
NDBC,ioos:station:wmo:42020:1,2013-12-16T17:50:00Z,26.9680,-96.6940,1026.8,1111122 
NDBC,ioos:station:wmo:42020:1,2013-12-16T18:50:00Z,26.9680,-96.6940,1025.7,1111122 
NDBC,ioos:station:wmo:42020:1,2013-12-16T19:50:00Z,26.9680,-96.6940,1024.8,1111122 
NDBC,ioos:station:wmo:42020:1,2013-12-16T20:50:00Z,26.9680,-96.6940,1024.5,1111122 
NDBC,ioos:station:wmo:42020:1,2013-12-16T21:50:00Z,26.9680,-96.6940,1024.2,1111122 
NDBC,ioos:station:wmo:42020:1,2013-12-16T22:50:00Z,26.9680,-96.6940,1024.2,1111122 
NDBC,ioos:station:wmo:42020:1,2013-12-16T23:50:00Z,26.9680,-96.6940,1024.3,1111122 
NDBC,ioos:station:wmo:42020:1,2013-12-17T00:50:00Z,26.9680,-96.6940,1024.6,1111122 
NDBC,ioos:station:wmo:42020:1,2013-12-17T01:50:00Z,26.9680,-96.6940,1025.2,1111122 
NDBC,ioos:station:wmo:42020:1,2013-12-17T02:50:00Z,26.9680,-96.6940,1025.5,1111122 
NDBC,ioos:station:wmo:42020:1,2013-12-17T03:50:00Z,26.9680,-96.6940,1025.5,1111122 
NDBC,ioos:station:wmo:42020:1,2013-12-17T04:50:00Z,26.9680,-96.6940,1025.4,1111122 
NDBC,ioos:station:wmo:42020:1,2013-12-17T05:50:00Z,26.9680,-96.6940,1025.1,1111122 
NDBC,ioos:station:wmo:42020:1,2013-12-17T06:50:00Z,26.9680,-96.6940,1024.9,1111122 
NDBC,ioos:station:wmo:42020:1,2013-12-17T07:50:00Z,26.9680,-96.6940,1024.5,1111122 
NDBC,ioos:station:wmo:42020:1,2013-12-17T08:50:00Z,26.9680,-96.6940,1024.6,1111122 
NDBC,ioos:station:wmo:42020:1,2013-12-17T09:50:00Z,26.9680,-96.6940,1024.5,1111122 
NDBC,ioos:station:wmo:42020:1,2013-12-17T10:50:00Z,26.9680,-96.6940,1024.4,1111122 
NDBC,ioos:station:wmo:42020:1,2013-12-17T11:50:00Z,26.9680,-96.6940,1024.4,1111122 
NDBC,ioos:station:wmo:42020:1,2013-12-17T12:50:00Z,26.9680,-96.6940,1024.9,1111122 
NDBC,ioos:station:wmo:42020:1,2013-12-17T13:50:00Z,26.9680,-96.6940,1025.5,1111122 
NDBC,ioos:station:wmo:42020:1,2013-12-17T14:50:00Z,26.9680,-96.6940,1026.2,1111122 
NDBC,ioos:station:wmo:42020:1,2013-12-17T15:50:00Z,26.9680,-96.6940,1027.0,1111122 
NDBC,ioos:station:wmo:42020:1,2013-12-17T16:50:00Z,26.9680,-96.6940,1027.0,1111122 
NDBC,ioos:station:wmo:42020:1,2013-12-17T17:50:00Z,26.9680,-96.6940,1026.6,1111122 
NDBC,ioos:station:wmo:42020:1,2013-12-17T18:50:00Z,26.9680,-96.6940,1025.5,1111122 
NDBC,ioos:station:wmo:42020:1,2013-12-17T19:50:00Z,26.9680,-96.6940,1024.5,1111122 
NDBC,ioos:station:wmo:42020:1,2013-12-17T20:50:00Z,26.9680,-96.6940,1024.1,1111122 
NDBC,ioos:station:wmo:42020:1,2013-12-17T21:50:00Z,26.9680,-96.6940,1023.9,1111122 
NDBC,ioos:station:wmo:42020:1,2013-12-17T22:50:00Z,26.9680,-96.6940,1024.0,1111122 
NDBC,ioos:station:wmo:42020:1,2013-12-17T23:50:00Z,26.9680,-96.6940,1024.2,1111122 
NDBC,ioos:station:wmo:42020:1,2013-12-18T00:50:00Z,26.9680,-96.6940,1024.8,1111122 
NDBC,ioos:station:wmo:42020:1,2013-12-18T01:50:00Z,26.9680,-96.6940,1025.4,1111122 
NDBC,ioos:station:wmo:42020:1,2013-12-18T02:50:00Z,26.9680,-96.6940,1025.8,1111122 
NDBC,ioos:station:wmo:42020:1,2013-12-18T03:50:00Z,26.9680,-96.6940,1026.0,1111122 
NDBC,ioos:station:wmo:42020:1,2013-12-18T04:50:00Z,26.9680,-96.6940,1026.3,1111122 
NDBC,ioos:station:wmo:42020:1,2013-12-18T05:50:00Z,26.9680,-96.6940,1025.9,1111122 
NDBC,ioos:station:wmo:42020:1,2013-12-18T06:50:00Z,26.9680,-96.6940,1025.5,1111122 
NDBC,ioos:station:wmo:42020:1,2013-12-18T07:50:00Z,26.9680,-96.6940,1025.1,1111122 
NDBC,ioos:station:wmo:42020:1,2013-12-18T08:50:00Z,26.9680,-96.6940,1024.7,1111122 
NDBC,ioos:station:wmo:42020:1,2013-12-18T09:50:00Z,26.9680,-96.6940,1024.5,1111122 
NDBC,ioos:station:wmo:42020:1,2013-12-18T10:50:00Z,26.9680,-96.6940,1024.5,1111122 
NDBC,ioos:station:wmo:42020:1,2013-12-18T11:50:00Z,26.9680,-96.6940,1024.5,1111122 
NDBC,ioos:station:wmo:42020:1,2013-12-18T12:50:00Z,26.9680,-96.6940,1024.8,1111122 
NDBC,ioos:station:wmo:42020:1,2013-12-18T13:50:00Z,26.9680,-96.6940,1025.2,1111122 
NDBC,ioos:station:wmo:42020:1,2013-12-18T14:50:00Z,26.9680,-96.6940,1025.6,1111122 
NDBC,ioos:station:wmo:42020:1,2013-12-18T15:50:00Z,26.9680,-96.6940,1025.9,1111122 
NDBC,ioos:station:wmo:42020:1,2013-12-18T16:50:00Z,26.9680,-96.6940,1025.7,1111122 
NDBC,ioos:station:wmo:42020:1,2013-12-18T17:50:00Z,26.9680,-96.6940,1024.9,1111122 
NDBC,ioos:station:wmo:42020:1,2013-12-18T18:50:00Z,26.9680,-96.6940,1023.5,1111122 
NDBC,ioos:station:wmo:42020:1,2013-12-18T19:50:00Z,26.9680,-96.6940,1022.2,1111122 
NDBC,ioos:station:wmo:42020:1,2013-12-18T20:50:00Z,26.9680,-96.6940,1021.5,1111122 
NDBC,ioos:station:wmo:42020:1,2013-12-18T21:50:00Z,26.9680,-96.6940,1021.0,1111122 
NDBC,ioos:station:wmo:42020:1,2013-12-18T23:50:00Z,26.9680,-96.6940,1020.5,1111122 
NDBC,ioos:station:wmo:42020:1,2013-12-19T00:50:00Z,26.9680,-96.6940,1020.6,1111122 
NDBC,ioos:station:wmo:42020:1,2013-12-19T01:50:00Z,26.9680,-96.6940,1020.4,1111122 
NDBC,ioos:station:wmo:42020:1,2013-12-19T02:50:00Z,26.9680,-96.6940,1020.5,1111122 
NDBC,ioos:station:wmo:42020:1,2013-12-19T04:50:00Z,26.9680,-96.6940,1019.9,1111122 
NDBC,ioos:station:wmo:42020:1,2013-12-19T05:50:00Z,26.9680,-96.6940,1018.9,1111122 
NDBC,ioos:station:wmo:42020:1,2013-12-19T06:50:00Z,26.9680,-96.6940,1018.1,1111122 
NDBC,ioos:station:wmo:42020:1,2013-12-19T07:50:00Z,26.9680,-96.6940,1017.3,1111122 
NDBC,ioos:station:wmo:42020:1,2013-12-19T08:50:00Z,26.9680,-96.6940,1016.3,1111122 
NDBC,ioos:station:wmo:42020:1,2013-12-19T09:50:00Z,26.9680,-96.6940,1016.0,1111122 
NDBC,ioos:station:wmo:42020:1,2013-12-19T10:50:00Z,26.9680,-96.6940,1015.6,1111122 
NDBC,ioos:station:wmo:42020:1,2013-12-19T11:50:00Z,26.9680,-96.6940,1015.3,1111122 
NDBC,ioos:station:wmo:42020:1,2013-12-19T12:50:00Z,26.9680,-96.6940,1015.1,1111122 
NDBC,ioos:station:wmo:42020:1,2013-12-19T13:50:00Z,26.9680,-96.6940,1014.9,1111122 
NDBC,ioos:station:wmo:42020:1,2013-12-19T14:50:00Z,26.9680,-96.6940,1015.0,1111122 
NDBC,ioos:station:wmo:42020:1,2013-12-19T18:50:00Z,26.9680,-96.6940,1013.8,1111122 
NDBC,ioos:station:wmo:42020:1,2013-12-19T19:50:00Z,26.9680,-96.6940,1012.4,1111122 
NDBC,ioos:station:wmo:42020:1,2013-12-19T20:50:00Z,26.9680,-96.6940,1011.9,1111122 
NDBC,ioos:station:wmo:42020:1,2013-12-19T21:50:00Z,26.9680,-96.6940,1011.5,1111122 
NDBC,ioos:station:wmo:42020:1,2013-12-19T22:50:00Z,26.9680,-96.6940,1011.3,1111122 
NDBC,ioos:station:wmo:42020:1,2013-12-20T00:50:00Z,26.9680,-96.6940,1011.4,1111122 
NDBC,ioos:station:wmo:42020:1,2013-12-20T01:50:00Z,26.9680,-96.6940,1012.0,1111122 
NDBC,ioos:station:wmo:42020:1,2013-12-20T02:50:00Z,26.9680,-96.6940,1012.2,1111122 
NDBC,ioos:station:wmo:42020:1,2013-12-20T03:50:00Z,26.9680,-96.6940,1012.2,1111122 
NDBC,ioos:station:wmo:42020:1,2013-12-20T04:50:00Z,26.9680,-96.6940,1012.2,1111122 
NDBC,ioos:station:wmo:42020:1,2013-12-20T05:50:00Z,26.9680,-96.6940,1011.7,1111122 
NDBC,ioos:station:wmo:42020:1,2013-12-20T06:50:00Z,26.9680,-96.6940,1011.3,1111122 
NDBC,ioos:station:wmo:42020:1,2013-12-20T07:50:00Z,26.9680,-96.6940,1010.9,1111122 
NDBC,ioos:station:wmo:42020:1,2013-12-20T08:50:00Z,26.9680,-96.6940,1010.4,1111122 
NDBC,ioos:station:wmo:42020:1,2013-12-20T09:50:00Z,26.9680,-96.6940,1010.2,1111122 
NDBC,ioos:station:wmo:42020:1,2013-12-20T10:50:00Z,26.9680,-96.6940,1010.0,1111122 
NDBC,ioos:station:wmo:42020:1,2013-12-20T11:50:00Z,26.9680,-96.6940,1010.2,1111122 
NDBC,ioos:station:wmo:42020:1,2013-12-20T12:50:00Z,26.9680,-96.6940,1010.7,1111122 
NDBC,ioos:station:wmo:42020:1,2013-12-20T13:50:00Z,26.9680,-96.6940,1010.8,1111122 
NDBC,ioos:station:wmo:42020:1,2013-12-20T14:50:00Z,26.9680,-96.6940,1010.9,1111122 
NDBC,ioos:station:wmo:42020:1,2013-12-20T15:50:00Z,26.9680,-96.6940,1010.9,1111122 
NDBC,ioos:station:wmo:42020:1,2013-12-20T16:50:00Z,26.9680,-96.6940,1010.7,1111122 
NDBC,ioos:station:wmo:42020:1,2013-12-20T17:50:00Z,26.9680,-96.6940,1009.9,1111122 
NDBC,ioos:station:wmo:42020:1,2013-12-20T18:50:00Z,26.9680,-96.6940,1008.7,1111122 
NDBC,ioos:station:wmo:42020:1,2013-12-20T19:50:00Z,26.9680,-96.6940,1007.9,1111122 
NDBC,ioos:station:wmo:42020:1,2013-12-20T20:50:00Z,26.9680,-96.6940,1007.2,1111122 
NDBC,ioos:station:wmo:42020:1,2013-12-20T21:50:00Z,26.9680,-96.6940,1006.5,1111122 
NDBC,ioos:station:wmo:42020:1,2013-12-20T22:50:00Z,26.9680,-96.6940,1006.6,1111122 
NDBC,ioos:station:wmo:42020:1,2013-12-20T23:50:00Z,26.9680,-96.6940,1006.7,1111122 
NDBC,ioos:station:wmo:42020:1,2013-12-21T00:50:00Z,26.9680,-96.6940,1006.4,1111122 